Regional Weather Roundup
Issued by NWS

Home | Current Version | Previous Version | Text Only | Print | Product List | Glossary On
Versions: 1 2 3 4 5 6 7 8 9 10 11 12 13 14 15 16 17 18 19 20 21 22 23 24 25 26 27 28 29 30 31 32 33 34 35 36 37 38 39 40 41 42 43 44 45 46 47 48 49 50
000
ASUS46 KPQR 300110
RWROR

OREGON REGIONAL WEATHER ROUNDUP
NATIONAL WEATHER SERVICE PORTLAND OR
600 PM PDT WED JUL 29 2015

NOTE: "FAIR" INDICATES FEW OR NO CLOUDS BELOW 12,000 FEET WITH
NO SIGNIFICANT WEATHER AND/OR OBSTRUCTIONS TO VISIBILITY.

ORZ001>013-300200-
NORTHWEST OREGON


CITY           SKY/WX    TMP DP  RH WIND       PRES   REMARKS
ASTORIA        SUNNY     77  54  44 NW20      30.05F
NEWPORT        SUNNY     64  54  68 N15G23    30.03S
PORTLAND       SUNNY     95  51  22 NW13G21   29.98F HX  92
VANCOUVER WA   SUNNY     95  45  17 NW13G21   29.98F HX  91
SCAPPOOSE      SUNNY     95  44  17 N14       29.99F HX  91
HILLSBORO      SUNNY     97  43  15 N14       29.98F HX  93
AURORA         SUNNY     97  46  17 N13       29.98F HX  93
MCMINNVILLE    SUNNY     99  39  12 N13       29.98F HX  94
SALEM          SUNNY     99  44  15 N12       29.95F HX  95
CORVALLIS      SUNNY    100  43  14 NE16      29.97F HX  96
EUGENE         SUNNY     98  41  14 N15       29.95F HX  93
$$

ORZ021-028-300200-
SOUTHWEST OREGON


CITY           SKY/WX    TMP DP  RH WIND       PRES   REMARKS
NORTH BEND     SUNNY     70  57  64 N21       29.96F
BROOKINGS      SUNNY     73  57  57 S7        29.92S
ROSEBURG       SUNNY    102  43  13 N15       29.91F HX  97
SEXTON SUMMIT  SUNNY     89  31  12 CALM      30.13F
MEDFORD        SUNNY    102  33   9 W8        29.92F HX  96
$$

ORZ014>016-041-300200-
COLUMBIA GORGE


CITY           SKY/WX    TMP DP  RH WIND       PRES   REMARKS
TROUTDALE      SUNNY     96  50  20 NW8G17    29.95F HX  93
THE DALLES     SUNNY     99  24   7 SE3       29.97F HX  92
$$

ORZ029>031-041-044-049-050-061>064-502-503-505>511-300200-
EASTERN OREGON


CITY           SKY/WX    TMP DP  RH WIND       PRES   REMARKS
REDMOND        SUNNY     90  34  13 N13       30.12F
BEND           SUNNY     88  27  11 N6        30.14F
PRINEVILLE     MOSUNNY   90  28  11 VRB7      30.13S
KLAMATH FALLS  SUNNY     91  20   7 VRB3      30.15S
LAKEVIEW       SUNNY     90  28  11 NW8G16    30.19S
HERMISTON      SUNNY     95  39  14 NE6       30.02F HX  91
PENDLETON      SUNNY     92  32  12 N8        30.06F
JOHN DAY       SUNNY     88  31  12 NW3       30.17F
MEACHAM        SUNNY     82  32  16 NE6       30.21S
LA GRANDE      SUNNY     88  37  16 E9        30.12F
BAKER CITY     SUNNY     85  40  20 NE5       30.17S
BURNS          SUNNY     86  24  10 SE6       30.21S
ROME             N/A     91  15   6 NW9       30.16F
ONTARIO        SUNNY     89  32  13 S3        30.13F
$$



USA.gov is the U.S. government's official web portal to all federal, state and local government web resources and services.